Weather History for Blakely, GA

Change the Weather History Date:

Saturday, November 12, 2011

  Actual Average (KDHN) Record (KDHN)
Temperature  
Mean Temperature 42 °F 60 °F  
Max Temperature 59 °F 72 °F 82 °F (1938)
Min Temperature 26 °F 47 °F 30 °F (2011)
Degree Days  
Heating Degree Days 22 6  
Month to date heating degree days 63  
Since 1 July heating degree days 122  
Moisture  
Dew Point 17 °F    
Average Humidity 58    
Maximum Humidity 100    
Minimum Humidity 4    
Precipitation  
Precipitation 0.00 in 0.12 in 2.39 in (1930)
Month to date precipitation 1.24  
Year to date precipitation 46.63  
Sea Level Pressure  
Sea Level Pressure 30.28 in    
Wind  
Wind Speed 0 mph (South)    
Max Wind Speed 7 mph    
Max Gust Speed -    
Visibility 10 miles    
Events      
T = Trace of Precipitation, MM = Missing Value Source: NWS Daily Summary

Daily Weather History Graph

Daily Weather History Graph

Search for Another Location

Airport:

Trip Planner

Search our weather history database for the weather conditions in past years. The results will help you decide how hot, cold, wet, or windy it might be!

Date:

Astronomy

Nov. 12, 2011 Rise Set
Actual Time 7:04 AM EST 5:42 PM EST
Civil Twilight 6:38 AM EST 6:08 PM EST
Nautical Twilight 6:09 AM EST 6:37 PM EST
Astronomical Twilight 5:40 AM EST 7:06 PM EST
Moon 7:04 PM EST (11/12) 8:39 AM EST (11/12)
Length of Visible Light 11h 29m
Length of Day
10h 38m
Full, 97% of the Moon is Illuminated
Nov 12
Full
Nov 18
Last Quarter
Nov 25
New
Dec 2
First Quarter
Dec 10
Full

Hourly Weather History & Observations

Time (EST) Temp. Dew Point Humidity Pressure Visibility Wind Dir Wind Speed Gust Speed Precip Events Conditions
12:15 AM 30.2 °F 19.4 °F 64% 30.26 in 10.0 mi Calm Calm - N/A   Clear
12:35 AM 30.2 °F 19.4 °F 64% 30.26 in 10.0 mi Calm Calm - N/A   Clear
12:55 AM 30.2 °F 19.4 °F 64% 30.26 in 10.0 mi Calm Calm - N/A   Clear
1:15 AM 30.2 °F 19.4 °F 64% 30.25 in 10.0 mi Calm Calm - N/A   Clear
1:35 AM 30.2 °F 19.4 °F 64% 30.25 in 10.0 mi Calm Calm - N/A   Clear
1:55 AM 30.2 °F 19.4 °F 64% 30.25 in 10.0 mi Calm Calm - N/A   Clear
2:15 AM 28.4 °F 19.4 °F 69% 30.25 in 10.0 mi Calm Calm - N/A   Clear
2:35 AM 28.4 °F 19.4 °F 69% 30.25 in 10.0 mi Calm Calm - N/A   Clear
2:55 AM 28.4 °F 19.4 °F 69% 30.25 in 10.0 mi Calm Calm - N/A   Clear
3:15 AM 28.4 °F 19.4 °F 69% 30.26 in 10.0 mi Calm Calm - N/A   Clear
3:35 AM 28.4 °F 21.2 °F 74% 30.26 in 10.0 mi Calm Calm - N/A   Clear
3:55 AM 28.4 °F 21.2 °F 74% 30.27 in 10.0 mi Calm Calm - N/A   Clear
4:15 AM 28.4 °F 19.4 °F 69% 30.27 in 10.0 mi Calm Calm - N/A   Clear
4:35 AM 28.4 °F 23.0 °F 80% 30.28 in 10.0 mi Calm Calm - N/A   Clear
4:55 AM 26.6 °F 21.2 °F 80% 30.28 in 10.0 mi Calm Calm - N/A   Clear
5:15 AM 26.6 °F 26.6 °F 100% 30.28 in 10.0 mi Calm Calm - N/A   Clear
5:35 AM 26.6 °F 26.6 °F 100% 30.29 in 10.0 mi Calm Calm - N/A   Clear
5:55 AM 26.6 °F 26.6 °F 100% 30.29 in 10.0 mi Calm Calm - N/A   Clear
6:15 AM 26.6 °F 26.6 °F 100% 30.30 in 10.0 mi Calm Calm - N/A   Clear
6:35 AM 26.6 °F 26.6 °F 100% 30.30 in 10.0 mi Calm Calm - N/A   Clear
6:55 AM 26.6 °F 26.6 °F 100% 30.30 in 10.0 mi Calm Calm - N/A   Clear
7:15 AM 26.6 °F 26.6 °F 100% 30.32 in 10.0 mi Calm Calm - N/A   Clear
7:35 AM 26.6 °F 26.6 °F 100% 30.33 in 10.0 mi Calm Calm - N/A   Clear
7:55 AM 28.4 °F 26.6 °F 93% 30.33 in 10.0 mi Calm Calm - N/A   Clear
8:15 AM 30.2 °F 26.6 °F 86% 30.33 in 10.0 mi Calm Calm - N/A   Clear
8:35 AM 33.8 °F 24.8 °F 70% 30.34 in 10.0 mi Calm Calm - N/A   Clear
8:55 AM 37.4 °F 23.0 °F 56% 30.35 in 10.0 mi Calm Calm - N/A   Clear
9:15 AM 42.8 °F 15.8 °F 34% 30.35 in 10.0 mi Calm Calm - N/A   Clear
9:35 AM 46.4 °F 14.0 °F 27% 30.35 in 10.0 mi Calm Calm - N/A   Clear
10:15 AM 53.6 °F -0.4 °F 11% 30.35 in 10.0 mi Calm Calm - N/A   Clear
10:35 AM 57.2 °F -25.6 °F 4% 30.35 in 10.0 mi South 4.6 mph - N/A   Clear
10:55 AM - - N/A% 30.35 in 10.0 mi South 4.6 mph - N/A   Clear
11:15 AM - - N/A% 30.35 in 10.0 mi SSW 6.9 mph - N/A   Clear
11:35 AM - - N/A% 30.34 in 10.0 mi SSW 6.9 mph - N/A   Clear
11:55 AM - - N/A% 30.33 in 10.0 mi South 5.8 mph - N/A   Clear
12:15 PM - - N/A% 30.32 in 10.0 mi Calm Calm - N/A   Clear
12:35 PM - - N/A% 30.31 in 10.0 mi SSE 4.6 mph - N/A   Clear
12:55 PM - - N/A% 30.30 in 10.0 mi SSW 3.5 mph - N/A   Clear
1:15 PM - - N/A% 30.29 in 10.0 mi SSE 3.5 mph - N/A   Clear
1:55 PM - - N/A% 30.27 in 10.0 mi Calm Calm - N/A   Clear
2:15 PM - - N/A% 30.27 in 10.0 mi ESE 3.5 mph - N/A   Clear
2:35 PM - - N/A% 30.26 in 10.0 mi Calm Calm - N/A   Clear
2:55 PM - - N/A% 30.26 in 10.0 mi Calm Calm - N/A   Clear
3:15 PM - - N/A% 30.26 in 10.0 mi Calm Calm - N/A   Clear
3:35 PM - - N/A% 30.25 in 10.0 mi Calm Calm - N/A   Clear
3:55 PM - - N/A% 30.26 in 10.0 mi Calm Calm - N/A   Clear
4:15 PM - - N/A% 30.26 in 10.0 mi Calm Calm - N/A   Clear
4:35 PM - - N/A% 30.27 in 10.0 mi Calm Calm - N/A   Clear
4:55 PM - - N/A% 30.26 in 10.0 mi Calm Calm - N/A   Clear
5:15 PM 59.0 °F -11.2 °F 5% 30.25 in 10.0 mi Calm Calm - N/A   Clear
5:35 PM 57.2 °F -5.8 °F 8% 30.25 in 10.0 mi Calm Calm - N/A   Clear
5:55 PM 53.6 °F -0.4 °F 11% 30.25 in 10.0 mi Calm Calm - N/A   Clear
6:15 PM 51.8 °F 5.0 °F 15% 30.26 in 10.0 mi Calm Calm - N/A   Clear
6:35 PM 50.0 °F 10.4 °F 20% 30.25 in 10.0 mi Calm Calm - N/A   Clear
6:55 PM 46.4 °F 14.0 °F 27% 30.27 in 10.0 mi Calm Calm - N/A   Clear
7:15 PM 46.4 °F 12.2 °F 25% 30.27 in 10.0 mi Calm Calm - N/A   Clear
7:35 PM 44.6 °F 14.0 °F 29% 30.27 in 10.0 mi Calm Calm - N/A   Clear
7:55 PM 42.8 °F 15.8 °F 34% 30.27 in 10.0 mi Calm Calm - N/A   Clear
8:15 PM 42.8 °F 17.6 °F 36% 30.26 in 10.0 mi Calm Calm - N/A   Clear
8:35 PM 41.0 °F 17.6 °F 39% 30.27 in 10.0 mi Calm Calm - N/A   Clear
8:55 PM 41.0 °F 19.4 °F 42% 30.27 in 10.0 mi Calm Calm - N/A   Clear
9:15 PM 41.0 °F 19.4 °F 42% 30.27 in 10.0 mi Calm Calm - N/A   Clear
9:35 PM 39.2 °F 19.4 °F 45% 30.27 in 10.0 mi Calm Calm - N/A   Clear
9:55 PM 37.4 °F 19.4 °F 48% 30.26 in 10.0 mi Calm Calm - N/A   Clear
10:15 PM 37.4 °F 19.4 °F 48% 30.27 in 10.0 mi Calm Calm - N/A   Clear
10:35 PM 35.6 °F 19.4 °F 52% 30.27 in 10.0 mi Calm Calm - N/A   Clear
10:55 PM 35.6 °F 19.4 °F 52% 30.27 in 10.0 mi Calm Calm - N/A   Clear
11:15 PM 35.6 °F 21.2 °F 56% 30.26 in 10.0 mi Calm Calm - N/A   Clear
11:35 PM 33.8 °F 21.2 °F 60% 30.25 in 10.0 mi Calm Calm - N/A   Clear
11:55 PM 33.8 °F 21.2 °F 60% 30.24 in 10.0 mi Calm Calm - N/A   Clear